Flag Weather past 2 weeks in Novorossiysk, Russia

Now
32 °F

Scattered clouds.


Feels Like: 20 °F
Forecast: 31 / 42 °F
Wind: 20 mph from East

Location: Anapa / Vitiazevo

Current Time: Nov 26, 2014 at 11:18:29 AM

Latest Report: Nov 26, 2014 at 11:00 AM


Visibility: N/A

Pressure: 30.07 "Hg

Humidity: 80%

Dew point: 27 °F

Location of NovorossiyskLocation

Historic Weather in Novorossiysk — Graph

°F

Novorossiysk temperature yesterday

Maximum temperature yesterday: 37 °F (at 2:00 PM)
Minimum temperature yesterday: 25 °F (at 1:00 AM)
Average temperature yesterday: 30 °F

Past Weeks' High & Low Weather Summary

 TemperatureHumidityPressure
High66 °F (Nov 13, 1:30 PM)100% (Nov 18, 11:00 PM)30.30 "Hg (Nov 18, 11:00 PM)
Low23 °F (Nov 23, 8:00 AM)33% (Nov 23, 1:00 PM)29.92 "Hg (Nov 22, 3:00 AM)
Average43 °F79%30.11 "Hg
* Reported Nov 11 10:00 AM — Nov 26 10:30 AM, Novorossiysk, Weather by CustomWeather, © 2014

Note: Actual official high and low records may vary slightly from our data, if they occured in-between our weather recording intervals... More about our weather records

Advertising

Novorossiysk weather history for previous 24 hours

 ConditionsComfort  
Time TempWeatherWind HumidityBarometerVisibility
10:30 AM
Nov 26
32 °FScattered clouds.17 mph80%30.07 "HgN/A
9:30 AM30 °FScattered clouds.17 mph86%30.09 "HgN/A
9:00 AM28 °FScattered clouds.20 mph93%30.07 "HgN/A
8:30 AM28 °FPassing clouds.17 mph93%30.09 "HgN/A
8:00 AM28 °FPassing clouds.15 mph93%30.09 "HgN/A
7:30 AM28 °FPassing clouds.13 mph93%30.09 "HgN/A
7:00 AM28 °FPassing clouds.20 mph93%30.07 "HgN/A
6:30 AM28 °FPassing clouds.24 mph93%30.07 "HgN/A
6:00 AM28 °FPassing clouds.20 mph93%30.07 "HgN/A
5:00 AM28 °FPassing clouds.15 mph93%30.09 "HgN/A
4:00 AM30 °FPassing clouds.24 mph86%30.09 "HgN/A
3:00 AM30 °FPassing clouds.24 mph86%30.09 "HgN/A
2:00 AM28 °FPassing clouds.26 mph93%30.09 "HgN/A
1:00 AM28 °FClear.24 mph93%30.12 "Hg10 mi
12:00 AM28 °FClear.24 mph93%30.12 "Hg10 mi
11:00 PM
Nov 25
30 °FClear.22 mph86%30.12 "Hg10 mi
10:00 PM30 °FClear.24 mph86%30.12 "Hg10 mi
9:00 PM30 °FClear.24 mph86%30.15 "Hg10 mi
8:00 PM30 °FClear.26 mph86%30.15 "Hg10 mi
7:00 PM32 °FClear.26 mph80%30.18 "Hg10 mi
6:30 PM32 °FClear.26 mph80%30.15 "Hg10 mi
6:00 PM34 °FClear.24 mph75%30.18 "Hg10 mi
5:30 PM34 °FSunny.24 mph81%30.18 "Hg10 mi
5:00 PM34 °FSunny.22 mph81%30.18 "Hg10 mi
4:30 PM36 °FSunny.24 mph75%30.18 "Hg10 mi
4:00 PM37 °FPassing clouds.26 mph70%30.18 "HgN/A
3:30 PM37 °FPassing clouds.22 mph70%30.18 "HgN/A
3:00 PM37 °FSunny.24 mph65%30.18 "Hg10 mi
2:30 PM37 °FSunny.26 mph65%30.18 "Hg10 mi
2:00 PM37 °FSunny.24 mph65%30.18 "Hg10 mi
1:00 PM36 °FPassing clouds.26 mph70%30.18 "HgN/A
12:30 PM34 °FPassing clouds.29 mph70%30.18 "HgN/A
12:00 PM34 °FPassing clouds.29 mph70%30.21 "HgN/A
11:30 AM32 °FPassing clouds.29 mph75%30.21 "HgN/A
11:00 AM30 °FPassing clouds.31 mph80%30.21 "HgN/A
Weather by CustomWeather, © 2014

See weather overviewHow to use our weather pages